iso_date,Year,Hour,Min,DOY,POS_DOY,Lat,Lon,BP,Ts,Ta,has_bp,has_ts,has_ta,BuoyID,Buoy_Type,Buoy_Owner,Logistics,Hemisphere
2021-08-09T15:38:00Z,2021,15,38,221.6514,221.6514,85.93542,88.02282,1016.0,-999.0,-999.0,yes,no,no,300534061341560,SIMBA,PRIC,MOSAiC,North
2021-08-09T16:00:02Z,2021,16,0,221.6667,221.6667,85.93568,88.03933,1016.0,-999.0,-999.0,yes,no,no,300534061341560,SIMBA,PRIC,MOSAiC,North
2021-08-09T16:30:00Z,2021,16,30,221.6875,221.6875,85.93614,88.06404,1016.0,-999.0,-999.0,yes,no,no,300534061341560,SIMBA,PRIC,MOSAiC,North
2021-08-09T16:59:57Z,2021,17,0,221.7083,221.7083,85.9367,88.09112,1016.0,-999.0,-999.0,yes,no,no,300534061341560,SIMBA,PRIC,MOSAiC,North
2021-08-09T17:30:02Z,2021,17,30,221.7292,221.7292,85.93741,88.12051,1016.0,-999.0,-999.0,yes,no,no,300534061341560,SIMBA,PRIC,MOSAiC,North
2021-08-09T18:00:00Z,2021,18,0,221.75,221.75,85.93826,88.15514,1016.0,-999.0,-999.0,yes,no,no,300534061341560,SIMBA,PRIC,MOSAiC,North
2021-08-09T18:29:57Z,2021,18,30,221.7708,221.7708,85.93913,88.19593,1016.0,-999.0,-999.0,yes,no,no,300534061341560,SIMBA,PRIC,MOSAiC,North
2021-08-09T19:00:02Z,2021,19,0,221.7917,221.7917,85.93934,88.24586,1016.0,-999.0,-999.0,yes,no,no,300534061341560,SIMBA,PRIC,MOSAiC,North
2021-08-09T19:30:00Z,2021,19,30,221.8125,221.8125,85.9391,88.30225,1016.0,-999.0,-999.0,yes,no,no,300534061341560,SIMBA,PRIC,MOSAiC,North
2021-08-09T19:59:57Z,2021,20,0,221.8333,221.8333,85.93837,88.36366,1016.0,-999.0,-999.0,yes,no,no,300534061341560,SIMBA,PRIC,MOSAiC,North
2021-08-09T20:30:02Z,2021,20,30,221.8542,221.8542,85.93734,88.42509,1016.0,-999.0,-999.0,yes,no,no,300534061341560,SIMBA,PRIC,MOSAiC,North
2021-08-09T21:00:00Z,2021,21,0,221.875,221.875,85.93591,88.48334,1016.0,-999.0,-999.0,yes,no,no,300534061341560,SIMBA,PRIC,MOSAiC,North
2021-08-09T21:29:57Z,2021,21,30,221.8958,221.8958,85.93407,88.53636,1016.0,-999.0,-999.0,yes,no,no,300534061341560,SIMBA,PRIC,MOSAiC,North
2021-08-09T22:00:02Z,2021,22,0,221.9167,221.9167,85.93202,88.58616,1016.0,-999.0,-999.0,yes,no,no,300534061341560,SIMBA,PRIC,MOSAiC,North
2021-08-09T22:30:00Z,2021,22,30,221.9375,221.9375,85.92977,88.63393,1016.0,-999.0,-999.0,yes,no,no,300534061341560,SIMBA,PRIC,MOSAiC,North
2021-08-09T22:59:57Z,2021,23,0,221.9583,221.9583,85.92733,88.67633,1016.0,-999.0,-999.0,yes,no,no,300534061341560,SIMBA,PRIC,MOSAiC,North
2021-08-09T23:30:02Z,2021,23,30,221.9792,221.9792,85.92476,88.71392,1016.0,-999.0,-999.0,yes,no,no,300534061341560,SIMBA,PRIC,MOSAiC,North
2021-08-10T00:00:00Z,2021,0,0,222.0,222.0,85.92219,88.74543,1016.0,-999.0,-999.0,yes,no,no,300534061341560,SIMBA,PRIC,MOSAiC,North
2021-08-10T00:29:57Z,2021,0,30,222.0208,222.0208,85.91956,88.77344,1016.0,-999.0,-999.0,yes,no,no,300534061341560,SIMBA,PRIC,MOSAiC,North
2021-08-10T01:00:02Z,2021,1,0,222.0417,222.0417,85.91694,88.80005,1016.0,-999.0,-999.0,yes,no,no,300534061341560,SIMBA,PRIC,MOSAiC,North
2021-08-10T01:30:00Z,2021,1,30,222.0625,222.0625,85.91441,88.82448,1016.0,-999.0,-999.0,yes,no,no,300534061341560,SIMBA,PRIC,MOSAiC,North
2021-08-10T01:59:57Z,2021,2,0,222.0833,222.0833,85.91202,88.84547,1016.0,-999.0,-999.0,yes,no,no,300534061341560,SIMBA,PRIC,MOSAiC,North
2021-08-10T02:30:02Z,2021,2,30,222.1042,222.1042,85.90985,88.86215,1017.0,-999.0,-999.0,yes,no,no,300534061341560,SIMBA,PRIC,MOSAiC,North
2021-08-10T03:00:00Z,2021,3,0,222.125,222.125,85.90805,88.87405,1016.0,-999.0,-999.0,yes,no,no,300534061341560,SIMBA,PRIC,MOSAiC,North
2021-08-10T03:29:57Z,2021,3,30,222.1458,222.1458,85.90676,88.88358,1016.0,-999.0,-999.0,yes,no,no,300534061341560,SIMBA,PRIC,MOSAiC,North
2021-08-10T04:00:02Z,2021,4,0,222.1667,222.1667,85.906,88.89221,1016.0,-999.0,-999.0,yes,no,no,300534061341560,SIMBA,PRIC,MOSAiC,North
2021-08-10T04:30:00Z,2021,4,30,222.1875,222.1875,85.90566,88.9035,1016.0,-999.0,-999.0,yes,no,no,300534061341560,SIMBA,PRIC,MOSAiC,North
2021-08-10T04:59:57Z,2021,5,0,222.2083,222.2083,85.90534,88.91937,1016.0,-999.0,-999.0,yes,no,no,300534061341560,SIMBA,PRIC,MOSAiC,North
2021-08-10T05:30:02Z,2021,5,30,222.2292,222.2292,85.90512,88.93506,1016.0,-999.0,-999.0,yes,no,no,300534061341560,SIMBA,PRIC,MOSAiC,North
2021-08-10T06:00:00Z,2021,6,0,222.25,222.25,85.90504,88.95283,1016.0,-999.0,-999.0,yes,no,no,300534061341560,SIMBA,PRIC,MOSAiC,North
2021-08-10T06:29:57Z,2021,6,30,222.2708,222.2708,85.90508,88.97422,1016.0,-999.0,-999.0,yes,no,no,300534061341560,SIMBA,PRIC,MOSAiC,North
2021-08-10T07:00:02Z,2021,7,0,222.2917,222.2917,85.90514,88.99864,1017.0,-999.0,-999.0,yes,no,no,300534061341560,SIMBA,PRIC,MOSAiC,North
2021-08-10T07:30:00Z,2021,7,30,222.3125,222.3125,85.90511,89.02642,1017.0,-999.0,-999.0,yes,no,no,300534061341560,SIMBA,PRIC,MOSAiC,North
2021-08-10T07:59:57Z,2021,8,0,222.3333,222.3333,85.90499,89.05857,1016.0,-999.0,-999.0,yes,no,no,300534061341560,SIMBA,PRIC,MOSAiC,North
2021-08-10T08:30:02Z,2021,8,30,222.3542,222.3542,85.90469,89.09468,1017.0,-999.0,-999.0,yes,no,no,300534061341560,SIMBA,PRIC,MOSAiC,North
2021-08-10T09:00:00Z,2021,9,0,222.375,222.375,85.90418,89.13331,1016.0,-999.0,-999.0,yes,no,no,300534061341560,SIMBA,PRIC,MOSAiC,North
2021-08-10T09:29:57Z,2021,9,30,222.3958,222.3958,85.90342,89.17172,1017.0,-999.0,-999.0,yes,no,no,300534061341560,SIMBA,PRIC,MOSAiC,North
2021-08-10T10:00:02Z,2021,10,0,222.4167,222.4167,85.90244,89.20878,1017.0,-999.0,-999.0,yes,no,no,300534061341560,SIMBA,PRIC,MOSAiC,North
2021-08-10T10:30:00Z,2021,10,30,222.4375,222.4375,85.90123,89.24374,1017.0,-999.0,-999.0,yes,no,no,300534061341560,SIMBA,PRIC,MOSAiC,North
2021-08-10T10:59:57Z,2021,11,0,222.4583,222.4583,85.89986,89.2768,1017.0,-999.0,-999.0,yes,no,no,300534061341560,SIMBA,PRIC,MOSAiC,North
2021-08-10T11:30:02Z,2021,11,30,222.4792,222.4792,85.89838,89.30756,1016.0,-999.0,-999.0,yes,no,no,300534061341560,SIMBA,PRIC,MOSAiC,North
2021-08-10T12:00:00Z,2021,12,0,222.5,222.5,85.89682,89.3344,1016.0,-999.0,-999.0,yes,no,no,300534061341560,SIMBA,PRIC,MOSAiC,North
2021-08-10T12:29:57Z,2021,12,30,222.5208,222.5208,85.89532,89.35874,1016.0,-999.0,-999.0,yes,no,no,300534061341560,SIMBA,PRIC,MOSAiC,North
2021-08-10T13:00:02Z,2021,13,0,222.5417,222.5417,85.89387,89.38047,1016.0,-999.0,-999.0,yes,no,no,300534061341560,SIMBA,PRIC,MOSAiC,North
2021-08-10T13:30:00Z,2021,13,30,222.5625,222.5625,85.89254,89.3981,1016.0,-999.0,-999.0,yes,no,no,300534061341560,SIMBA,PRIC,MOSAiC,North
2021-08-10T13:59:57Z,2021,14,0,222.5833,222.5833,85.89136,89.41247,1016.0,-999.0,-999.0,yes,no,no,300534061341560,SIMBA,PRIC,MOSAiC,North
2021-08-10T14:30:02Z,2021,14,30,222.6042,222.6042,85.89042,89.42473,1016.0,-999.0,-999.0,yes,no,no,300534061341560,SIMBA,PRIC,MOSAiC,North
2021-08-10T15:00:00Z,2021,15,0,222.625,222.625,85.88975,89.43617,1016.0,-999.0,-999.0,yes,no,no,300534061341560,SIMBA,PRIC,MOSAiC,North
2021-08-10T15:29:57Z,2021,15,30,222.6458,222.6458,85.88944,89.44835,1016.0,-999.0,-999.0,yes,no,no,300534061341560,SIMBA,PRIC,MOSAiC,North
2021-08-10T16:00:02Z,2021,16,0,222.6667,222.6667,85.88945,89.46265,1015.0,-999.0,-999.0,yes,no,no,300534061341560,SIMBA,PRIC,MOSAiC,North
2021-08-10T16:30:00Z,2021,16,30,222.6875,222.6875,85.88981,89.48017,1015.0,-999.0,-999.0,yes,no,no,300534061341560,SIMBA,PRIC,MOSAiC,North
2021-08-10T16:59:57Z,2021,17,0,222.7083,222.7083,85.89056,89.50137,1015.0,-999.0,-999.0,yes,no,no,300534061341560,SIMBA,PRIC,MOSAiC,North
2021-08-10T17:30:02Z,2021,17,30,222.7292,222.7292,85.89178,89.52776,1015.0,-999.0,-999.0,yes,no,no,300534061341560,SIMBA,PRIC,MOSAiC,North
2021-08-10T18:00:00Z,2021,18,0,222.75,222.75,85.89357,89.56183,1015.0,-999.0,-999.0,yes,no,no,300534061341560,SIMBA,PRIC,MOSAiC,North
2021-08-10T18:29:57Z,2021,18,30,222.7708,222.7708,85.8957,89.60201,1015.0,-999.0,-999.0,yes,no,no,300534061341560,SIMBA,PRIC,MOSAiC,North
2021-08-10T19:00:02Z,2021,19,0,222.7917,222.7917,85.89793,89.64593,1014.0,-999.0,-999.0,yes,no,no,300534061341560,SIMBA,PRIC,MOSAiC,North
2021-08-10T19:30:00Z,2021,19,30,222.8125,222.8125,85.9001,89.69495,1014.0,-999.0,-999.0,yes,no,no,300534061341560,SIMBA,PRIC,MOSAiC,North
2021-08-10T19:59:57Z,2021,20,0,222.8333,222.8333,85.90216,89.74738,1014.0,-999.0,-999.0,yes,no,no,300534061341560,SIMBA,PRIC,MOSAiC,North
2021-08-10T20:30:02Z,2021,20,30,222.8542,222.8542,85.90406,89.8013,1014.0,-999.0,-999.0,yes,no,no,300534061341560,SIMBA,PRIC,MOSAiC,North
2021-08-10T21:00:00Z,2021,21,0,222.875,222.875,85.90575,89.85851,1014.0,-999.0,-999.0,yes,no,no,300534061341560,SIMBA,PRIC,MOSAiC,North
2021-08-10T21:29:57Z,2021,21,30,222.8958,222.8958,85.90722,89.91452,1014.0,-999.0,-999.0,yes,no,no,300534061341560,SIMBA,PRIC,MOSAiC,North
2021-08-10T22:00:02Z,2021,22,0,222.9167,222.9167,85.90843,89.97129,1014.0,-999.0,-999.0,yes,no,no,300534061341560,SIMBA,PRIC,MOSAiC,North
2021-08-10T22:30:00Z,2021,22,30,222.9375,222.9375,85.90935,90.02716,1014.0,-999.0,-999.0,yes,no,no,300534061341560,SIMBA,PRIC,MOSAiC,North
2021-08-10T22:59:57Z,2021,23,0,222.9583,222.9583,85.91006,90.08193,1014.0,-999.0,-999.0,yes,no,no,300534061341560,SIMBA,PRIC,MOSAiC,North
2021-08-10T23:30:02Z,2021,23,30,222.9792,222.9792,85.91052,90.13066,1013.0,-999.0,-999.0,yes,no,no,300534061341560,SIMBA,PRIC,MOSAiC,North
2021-08-11T00:00:00Z,2021,0,0,223.0,223.0,85.91085,90.17692,1013.0,-999.0,-999.0,yes,no,no,300534061341560,SIMBA,PRIC,MOSAiC,North
2021-08-11T00:29:57Z,2021,0,30,223.0208,223.0208,85.91115,90.21834,1013.0,-999.0,-999.0,yes,no,no,300534061341560,SIMBA,PRIC,MOSAiC,North
2021-08-11T01:00:02Z,2021,1,0,223.0417,223.0417,85.91155,90.2553,1013.0,-999.0,-999.0,yes,no,no,300534061341560,SIMBA,PRIC,MOSAiC,North
2021-08-11T01:30:00Z,2021,1,30,223.0625,223.0625,85.91218,90.28721,1012.0,-999.0,-999.0,yes,no,no,300534061341560,SIMBA,PRIC,MOSAiC,North
2021-08-11T01:59:57Z,2021,2,0,223.0833,223.0833,85.91303,90.31476,1012.0,-999.0,-999.0,yes,no,no,300534061341560,SIMBA,PRIC,MOSAiC,North
2021-08-11T02:30:02Z,2021,2,30,223.1042,223.1042,85.914,90.33786,1012.0,-999.0,-999.0,yes,no,no,300534061341560,SIMBA,PRIC,MOSAiC,North
2021-08-11T03:00:00Z,2021,3,0,223.125,223.125,85.9152,90.35977,1012.0,-999.0,-999.0,yes,no,no,300534061341560,SIMBA,PRIC,MOSAiC,North
2021-08-11T03:29:57Z,2021,3,30,223.1458,223.1458,85.9168,90.38232,1012.0,-999.0,-999.0,yes,no,no,300534061341560,SIMBA,PRIC,MOSAiC,North
2021-08-11T04:00:02Z,2021,4,0,223.1667,223.1667,85.9189,90.40753,1011.0,-999.0,-999.0,yes,no,no,300534061341560,SIMBA,PRIC,MOSAiC,North
2021-08-11T04:30:00Z,2021,4,30,223.1875,223.1875,85.92141,90.43427,1011.0,-999.0,-999.0,yes,no,no,300534061341560,SIMBA,PRIC,MOSAiC,North
2021-08-11T04:59:57Z,2021,5,0,223.2083,223.2083,85.92417,90.46326,1011.0,-999.0,-999.0,yes,no,no,300534061341560,SIMBA,PRIC,MOSAiC,North
2021-08-11T05:30:02Z,2021,5,30,223.2292,223.2292,85.92685,90.49306,1011.0,-999.0,-999.0,yes,no,no,300534061341560,SIMBA,PRIC,MOSAiC,North
2021-08-11T06:00:00Z,2021,6,0,223.25,223.25,85.92942,90.52368,1011.0,-999.0,-999.0,yes,no,no,300534061341560,SIMBA,PRIC,MOSAiC,North
2021-08-11T06:29:57Z,2021,6,30,223.2708,223.2708,85.93207,90.55923,1011.0,-999.0,-999.0,yes,no,no,300534061341560,SIMBA,PRIC,MOSAiC,North
2021-08-11T07:00:02Z,2021,7,0,223.2917,223.2917,85.9345,90.59821,1011.0,-999.0,-999.0,yes,no,no,300534061341560,SIMBA,PRIC,MOSAiC,North
2021-08-11T07:30:00Z,2021,7,30,223.3125,223.3125,85.93659,90.63854,1011.0,-999.0,-999.0,yes,no,no,300534061341560,SIMBA,PRIC,MOSAiC,North
2021-08-11T07:59:57Z,2021,8,0,223.3333,223.3333,85.9383,90.67797,1011.0,-999.0,-999.0,yes,no,no,300534061341560,SIMBA,PRIC,MOSAiC,North
2021-08-11T08:30:02Z,2021,8,30,223.3542,223.3542,85.93967,90.71627,1010.0,-999.0,-999.0,yes,no,no,300534061341560,SIMBA,PRIC,MOSAiC,North
2021-08-11T09:00:00Z,2021,9,0,223.375,223.375,85.94077,90.75385,1010.0,-999.0,-999.0,yes,no,no,300534061341560,SIMBA,PRIC,MOSAiC,North
2021-08-11T09:29:57Z,2021,9,30,223.3958,223.3958,85.94162,90.78956,1011.0,-999.0,-999.0,yes,no,no,300534061341560,SIMBA,PRIC,MOSAiC,North
2021-08-11T10:00:02Z,2021,10,0,223.4167,223.4167,85.94222,90.8218,1010.0,-999.0,-999.0,yes,no,no,300534061341560,SIMBA,PRIC,MOSAiC,North
2021-08-11T10:30:00Z,2021,10,30,223.4375,223.4375,85.94264,90.85009,1010.0,-999.0,-999.0,yes,no,no,300534061341560,SIMBA,PRIC,MOSAiC,North
2021-08-11T10:59:57Z,2021,11,0,223.4583,223.4583,85.94293,90.87389,1010.0,-999.0,-999.0,yes,no,no,300534061341560,SIMBA,PRIC,MOSAiC,North
2021-08-11T11:30:02Z,2021,11,30,223.4792,223.4792,85.94311,90.89239,1010.0,-999.0,-999.0,yes,no,no,300534061341560,SIMBA,PRIC,MOSAiC,North
2021-08-11T12:00:00Z,2021,12,0,223.5,223.5,85.94323,90.90668,1010.0,-999.0,-999.0,yes,no,no,300534061341560,SIMBA,PRIC,MOSAiC,North
2021-08-11T12:29:57Z,2021,12,30,223.5208,223.5208,85.94331,90.91698,1010.0,-999.0,-999.0,yes,no,no,300534061341560,SIMBA,PRIC,MOSAiC,North
2021-08-11T13:00:02Z,2021,13,0,223.5417,223.5417,85.9434,90.92344,1010.0,-999.0,-999.0,yes,no,no,300534061341560,SIMBA,PRIC,MOSAiC,North
2021-08-11T13:30:00Z,2021,13,30,223.5625,223.5625,85.94357,90.92828,1009.0,-999.0,-999.0,yes,no,no,300534061341560,SIMBA,PRIC,MOSAiC,North
2021-08-11T13:59:57Z,2021,14,0,223.5833,223.5833,85.94389,90.93177,1009.0,-999.0,-999.0,yes,no,no,300534061341560,SIMBA,PRIC,MOSAiC,North
2021-08-11T14:30:02Z,2021,14,30,223.6042,223.6042,85.94434,90.93425,1009.0,-999.0,-999.0,yes,no,no,300534061341560,SIMBA,PRIC,MOSAiC,North
2021-08-11T15:00:00Z,2021,15,0,223.625,223.625,85.94489,90.93649,1009.0,-999.0,-999.0,yes,no,no,300534061341560,SIMBA,PRIC,MOSAiC,North
2021-08-11T15:29:57Z,2021,15,30,223.6458,223.6458,85.94564,90.93904,1009.0,-999.0,-999.0,yes,no,no,300534061341560,SIMBA,PRIC,MOSAiC,North
2021-08-11T16:00:02Z,2021,16,0,223.6667,223.6667,85.94654,90.94281,1008.0,-999.0,-999.0,yes,no,no,300534061341560,SIMBA,PRIC,MOSAiC,North
2021-08-11T16:30:00Z,2021,16,30,223.6875,223.6875,85.94755,90.9482,1008.0,-999.0,-999.0,yes,no,no,300534061341560,SIMBA,PRIC,MOSAiC,North
2021-08-11T16:59:57Z,2021,17,0,223.7083,223.7083,85.94867,90.9557,1008.0,-999.0,-999.0,yes,no,no,300534061341560,SIMBA,PRIC,MOSAiC,North
2021-08-11T17:30:02Z,2021,17,30,223.7292,223.7292,85.94983,90.96523,1008.0,-999.0,-999.0,yes,no,no,300534061341560,SIMBA,PRIC,MOSAiC,North
2021-08-11T18:00:00Z,2021,18,0,223.75,223.75,85.95099,90.97655,1008.0,-999.0,-999.0,yes,no,no,300534061341560,SIMBA,PRIC,MOSAiC,North
2021-08-11T18:29:57Z,2021,18,30,223.7708,223.7708,85.95212,90.98967,1008.0,-999.0,-999.0,yes,no,no,300534061341560,SIMBA,PRIC,MOSAiC,North
2021-08-11T19:00:02Z,2021,19,0,223.7917,223.7917,85.95316,91.00395,1008.0,-999.0,-999.0,yes,no,no,300534061341560,SIMBA,PRIC,MOSAiC,North
2021-08-11T19:30:00Z,2021,19,30,223.8125,223.8125,85.9541,91.01878,1008.0,-999.0,-999.0,yes,no,no,300534061341560,SIMBA,PRIC,MOSAiC,North
2021-08-11T19:59:57Z,2021,20,0,223.8333,223.8333,85.9549,91.03394,1008.0,-999.0,-999.0,yes,no,no,300534061341560,SIMBA,PRIC,MOSAiC,North
2021-08-11T20:30:02Z,2021,20,30,223.8542,223.8542,85.95552,91.0485,1008.0,-999.0,-999.0,yes,no,no,300534061341560,SIMBA,PRIC,MOSAiC,North
2021-08-11T21:00:00Z,2021,21,0,223.875,223.875,85.95597,91.06175,1008.0,-999.0,-999.0,yes,no,no,300534061341560,SIMBA,PRIC,MOSAiC,North
2021-08-11T21:29:57Z,2021,21,30,223.8958,223.8958,85.95623,91.07285,1008.0,-999.0,-999.0,yes,no,no,300534061341560,SIMBA,PRIC,MOSAiC,North
2021-08-11T22:00:02Z,2021,22,0,223.9167,223.9167,85.95629,91.08157,1008.0,-999.0,-999.0,yes,no,no,300534061341560,SIMBA,PRIC,MOSAiC,North
2021-08-11T22:30:00Z,2021,22,30,223.9375,223.9375,85.95617,91.08732,1008.0,-999.0,-999.0,yes,no,no,300534061341560,SIMBA,PRIC,MOSAiC,North
2021-08-11T22:59:57Z,2021,23,0,223.9583,223.9583,85.95593,91.08947,1008.0,-999.0,-999.0,yes,no,no,300534061341560,SIMBA,PRIC,MOSAiC,North
2021-08-11T23:30:02Z,2021,23,30,223.9792,223.9792,85.95564,91.0884,1008.0,-999.0,-999.0,yes,no,no,300534061341560,SIMBA,PRIC,MOSAiC,North
2021-08-12T00:00:00Z,2021,0,0,224.0,224.0,85.95535,91.08437,1008.0,-999.0,-999.0,yes,no,no,300534061341560,SIMBA,PRIC,MOSAiC,North
2021-08-12T00:29:57Z,2021,0,30,224.0208,224.0208,85.9551,91.07721,1008.0,-999.0,-999.0,yes,no,no,300534061341560,SIMBA,PRIC,MOSAiC,North
2021-08-12T01:00:02Z,2021,1,0,224.0417,224.0417,85.95491,91.06742,1008.0,-999.0,-999.0,yes,no,no,300534061341560,SIMBA,PRIC,MOSAiC,North
2021-08-12T01:30:00Z,2021,1,30,224.0625,224.0625,85.95482,91.05526,1008.0,-999.0,-999.0,yes,no,no,300534061341560,SIMBA,PRIC,MOSAiC,North
2021-08-12T01:59:57Z,2021,2,0,224.0833,224.0833,85.95486,91.04157,1007.0,-999.0,-999.0,yes,no,no,300534061341560,SIMBA,PRIC,MOSAiC,North
2021-08-12T02:30:02Z,2021,2,30,224.1042,224.1042,85.95508,91.02737,1008.0,-999.0,-999.0,yes,no,no,300534061341560,SIMBA,PRIC,MOSAiC,North
2021-08-12T03:00:00Z,2021,3,0,224.125,224.125,85.95554,91.01321,1008.0,-999.0,-999.0,yes,no,no,300534061341560,SIMBA,PRIC,MOSAiC,North
2021-08-12T03:29:57Z,2021,3,30,224.1458,224.1458,85.95627,91.00012,1007.0,-999.0,-999.0,yes,no,no,300534061341560,SIMBA,PRIC,MOSAiC,North
2021-08-12T04:00:02Z,2021,4,0,224.1667,224.1667,85.95722,90.98859,1007.0,-999.0,-999.0,yes,no,no,300534061341560,SIMBA,PRIC,MOSAiC,North
2021-08-12T04:30:00Z,2021,4,30,224.1875,224.1875,85.9584,90.97906,1008.0,-999.0,-999.0,yes,no,no,300534061341560,SIMBA,PRIC,MOSAiC,North
2021-08-12T04:59:57Z,2021,5,0,224.2083,224.2083,85.95971,90.97173,1008.0,-999.0,-999.0,yes,no,no,300534061341560,SIMBA,PRIC,MOSAiC,North
2021-08-12T05:30:02Z,2021,5,30,224.2292,224.2292,85.96105,90.96642,1008.0,-999.0,-999.0,yes,no,no,300534061341560,SIMBA,PRIC,MOSAiC,North
2021-08-12T06:00:00Z,2021,6,0,224.25,224.25,85.96233,90.96336,1008.0,-999.0,-999.0,yes,no,no,300534061341560,SIMBA,PRIC,MOSAiC,North
2021-08-12T06:29:57Z,2021,6,30,224.2708,224.2708,85.96353,90.96213,1007.0,-999.0,-999.0,yes,no,no,300534061341560,SIMBA,PRIC,MOSAiC,North
2021-08-12T07:00:02Z,2021,7,0,224.2917,224.2917,85.9646,90.96173,1007.0,-999.0,-999.0,yes,no,no,300534061341560,SIMBA,PRIC,MOSAiC,North
2021-08-12T07:30:00Z,2021,7,30,224.3125,224.3125,85.96553,90.96173,1008.0,-999.0,-999.0,yes,no,no,300534061341560,SIMBA,PRIC,MOSAiC,North
2021-08-12T07:59:57Z,2021,8,0,224.3333,224.3333,85.96632,90.96139,1008.0,-999.0,-999.0,yes,no,no,300534061341560,SIMBA,PRIC,MOSAiC,North
2021-08-12T08:30:02Z,2021,8,30,224.3542,224.3542,85.96698,90.96045,1008.0,-999.0,-999.0,yes,no,no,300534061341560,SIMBA,PRIC,MOSAiC,North
2021-08-12T09:00:00Z,2021,9,0,224.375,224.375,85.96748,90.95825,1008.0,-999.0,-999.0,yes,no,no,300534061341560,SIMBA,PRIC,MOSAiC,North
2021-08-12T09:29:57Z,2021,9,30,224.3958,224.3958,85.96777,90.95427,1008.0,-999.0,-999.0,yes,no,no,300534061341560,SIMBA,PRIC,MOSAiC,North
2021-08-12T10:00:02Z,2021,10,0,224.4167,224.4167,85.96796,90.94797,1008.0,-999.0,-999.0,yes,no,no,300534061341560,SIMBA,PRIC,MOSAiC,North
2021-08-12T10:30:00Z,2021,10,30,224.4375,224.4375,85.96811,90.93903,1008.0,-999.0,-999.0,yes,no,no,300534061341560,SIMBA,PRIC,MOSAiC,North
2021-08-12T10:59:57Z,2021,11,0,224.4583,224.4583,85.9682,90.92758,1008.0,-999.0,-999.0,yes,no,no,300534061341560,SIMBA,PRIC,MOSAiC,North
2021-08-12T11:30:02Z,2021,11,30,224.4792,224.4792,85.96833,90.91333,1008.0,-999.0,-999.0,yes,no,no,300534061341560,SIMBA,PRIC,MOSAiC,North
2021-08-12T12:00:00Z,2021,12,0,224.5,224.5,85.96847,90.89464,1008.0,-999.0,-999.0,yes,no,no,300534061341560,SIMBA,PRIC,MOSAiC,North
2021-08-12T12:29:57Z,2021,12,30,224.5208,224.5208,85.96871,90.87315,1008.0,-999.0,-999.0,yes,no,no,300534061341560,SIMBA,PRIC,MOSAiC,North
2021-08-12T13:00:02Z,2021,13,0,224.5417,224.5417,85.96905,90.84942,1008.0,-999.0,-999.0,yes,no,no,300534061341560,SIMBA,PRIC,MOSAiC,North
2021-08-12T13:30:00Z,2021,13,30,224.5625,224.5625,85.96954,90.8236,1008.0,-999.0,-999.0,yes,no,no,300534061341560,SIMBA,PRIC,MOSAiC,North
2021-08-12T13:59:57Z,2021,14,0,224.5833,224.5833,85.97013,90.79653,1008.0,-999.0,-999.0,yes,no,no,300534061341560,SIMBA,PRIC,MOSAiC,North
2021-08-12T14:30:02Z,2021,14,30,224.6042,224.6042,85.97091,90.76929,1008.0,-999.0,-999.0,yes,no,no,300534061341560,SIMBA,PRIC,MOSAiC,North
2021-08-12T15:00:00Z,2021,15,0,224.625,224.625,85.97175,90.74186,1008.0,-999.0,-999.0,yes,no,no,300534061341560,SIMBA,PRIC,MOSAiC,North
2021-08-12T15:29:57Z,2021,15,30,224.6458,224.6458,85.97278,90.71483,1008.0,-999.0,-999.0,yes,no,no,300534061341560,SIMBA,PRIC,MOSAiC,North
2021-08-12T16:00:02Z,2021,16,0,224.6667,224.6667,85.97389,90.68853,1008.0,-999.0,-999.0,yes,no,no,300534061341560,SIMBA,PRIC,MOSAiC,North
2021-08-12T16:30:00Z,2021,16,30,224.6875,224.6875,85.9751,90.66363,1008.0,-999.0,-999.0,yes,no,no,300534061341560,SIMBA,PRIC,MOSAiC,North
2021-08-12T16:59:57Z,2021,17,0,224.7083,224.7083,85.97633,90.64106,1008.0,-999.0,-999.0,yes,no,no,300534061341560,SIMBA,PRIC,MOSAiC,North
2021-08-12T17:30:02Z,2021,17,30,224.7292,224.7292,85.97754,90.62056,1009.0,-999.0,-999.0,yes,no,no,300534061341560,SIMBA,PRIC,MOSAiC,North
2021-08-12T18:00:00Z,2021,18,0,224.75,224.75,85.97875,90.60173,1009.0,-999.0,-999.0,yes,no,no,300534061341560,SIMBA,PRIC,MOSAiC,North
2021-08-12T18:29:57Z,2021,18,30,224.7708,224.7708,85.97996,90.58415,1009.0,-999.0,-999.0,yes,no,no,300534061341560,SIMBA,PRIC,MOSAiC,North
2021-08-12T19:00:02Z,2021,19,0,224.7917,224.7917,85.98108,90.56781,1009.0,-999.0,-999.0,yes,no,no,300534061341560,SIMBA,PRIC,MOSAiC,North
2021-08-12T19:30:00Z,2021,19,30,224.8125,224.8125,85.98217,90.55266,1009.0,-999.0,-999.0,yes,no,no,300534061341560,SIMBA,PRIC,MOSAiC,North
2021-08-12T19:59:57Z,2021,20,0,224.8333,224.8333,85.98322,90.53937,1009.0,-999.0,-999.0,yes,no,no,300534061341560,SIMBA,PRIC,MOSAiC,North
2021-08-12T20:30:02Z,2021,20,30,224.8542,224.8542,85.9842,90.52642,1010.0,-999.0,-999.0,yes,no,no,300534061341560,SIMBA,PRIC,MOSAiC,North
2021-08-12T21:00:00Z,2021,21,0,224.875,224.875,85.98493,90.51325,1010.0,-999.0,-999.0,yes,no,no,300534061341560,SIMBA,PRIC,MOSAiC,North
2021-08-12T21:29:57Z,2021,21,30,224.8958,224.8958,85.98554,90.50011,1010.0,-999.0,-999.0,yes,no,no,300534061341560,SIMBA,PRIC,MOSAiC,North
2021-08-12T22:00:02Z,2021,22,0,224.9167,224.9167,85.98593,90.48414,1010.0,-999.0,-999.0,yes,no,no,300534061341560,SIMBA,PRIC,MOSAiC,North
2021-08-12T22:30:00Z,2021,22,30,224.9375,224.9375,85.98621,90.46583,1010.0,-999.0,-999.0,yes,no,no,300534061341560,SIMBA,PRIC,MOSAiC,North
2021-08-12T22:59:57Z,2021,23,0,224.9583,224.9583,85.98644,90.44612,1010.0,-999.0,-999.0,yes,no,no,300534061341560,SIMBA,PRIC,MOSAiC,North
2021-08-12T23:30:02Z,2021,23,30,224.9792,224.9792,85.9866,90.42165,1011.0,-999.0,-999.0,yes,no,no,300534061341560,SIMBA,PRIC,MOSAiC,North
2021-08-13T00:00:00Z,2021,0,0,225.0,225.0,85.98673,90.39468,1011.0,-999.0,-999.0,yes,no,no,300534061341560,SIMBA,PRIC,MOSAiC,North
2021-08-13T00:29:57Z,2021,0,30,225.0208,225.0208,85.98694,90.36591,1011.0,-999.0,-999.0,yes,no,no,300534061341560,SIMBA,PRIC,MOSAiC,North
2021-08-13T01:00:02Z,2021,1,0,225.0417,225.0417,85.9871,90.33337,1011.0,-999.0,-999.0,yes,no,no,300534061341560,SIMBA,PRIC,MOSAiC,North
2021-08-13T01:30:00Z,2021,1,30,225.0625,225.0625,85.98728,90.2975,1011.0,-999.0,-999.0,yes,no,no,300534061341560,SIMBA,PRIC,MOSAiC,North
2021-08-13T01:59:57Z,2021,2,0,225.0833,225.0833,85.98766,90.26071,1011.0,-999.0,-999.0,yes,no,no,300534061341560,SIMBA,PRIC,MOSAiC,North
2021-08-13T02:30:02Z,2021,2,30,225.1042,225.1042,85.98821,90.2241,1011.0,-999.0,-999.0,yes,no,no,300534061341560,SIMBA,PRIC,MOSAiC,North
2021-08-13T03:00:00Z,2021,3,0,225.125,225.125,85.98893,90.18754,1011.0,-999.0,-999.0,yes,no,no,300534061341560,SIMBA,PRIC,MOSAiC,North
2021-08-13T03:29:57Z,2021,3,30,225.1458,225.1458,85.98989,90.14987,1011.0,-999.0,-999.0,yes,no,no,300534061341560,SIMBA,PRIC,MOSAiC,North
2021-08-13T04:00:02Z,2021,4,0,225.1667,225.1667,85.99107,90.11127,1011.0,-999.0,-999.0,yes,no,no,300534061341560,SIMBA,PRIC,MOSAiC,North
2021-08-13T04:30:00Z,2021,4,30,225.1875,225.1875,85.9924,90.075,1012.0,-999.0,-999.0,yes,no,no,300534061341560,SIMBA,PRIC,MOSAiC,North
2021-08-13T04:59:57Z,2021,5,0,225.2083,225.2083,85.99381,90.04145,1012.0,-999.0,-999.0,yes,no,no,300534061341560,SIMBA,PRIC,MOSAiC,North
2021-08-13T05:30:02Z,2021,5,30,225.2292,225.2292,85.99526,90.01026,1012.0,-999.0,-999.0,yes,no,no,300534061341560,SIMBA,PRIC,MOSAiC,North